• In Belgien
  • Länderverzeichnis
  • Für 7 Tage
  • Wassertemperatur
  • Satellitenkarten
  • Wetterkarte
  • Widgets
  • user-avatar
    Anmelden

    Stündliche Wetter Polevaya

    Heute, 23 Juli, Montag

    Zeit Temperatur Niederschläge Wind Luftdruck Luftfeuchtigkeit
    00:00 +17°C° 0 mm 2 m/S 747 mmHg 95%
    01:00 +17°C° 0 mm 2 m/S 747 mmHg 96%
    02:00 +17°C° 0 mm 2 m/S 747 mmHg 98%
    03:00 +17°C° 0 mm 2 m/S 747 mmHg 97%
    04:00 +17°C° 0 mm 2 m/S 747 mmHg 95%
    05:00 +18°C° 0 mm 3 m/S 748 mmHg 94%
    06:00 +19°C° 0 mm 3 m/S 748 mmHg 90%
    07:00 +20°C° 0 mm 3 m/S 748 mmHg 85%
    08:00 +21°C° 0 mm 4 m/S 748 mmHg 81%
    09:00 +22°C° 0,1 mm 4 m/S 748 mmHg 77%
    10:00 +23°C° 0,1 mm 4 m/S 748 mmHg 72%
    11:00 +25°C° 0,1 mm 4 m/S 748 mmHg 68%
    12:00 +25°C° 0,2 mm 4 m/S 748 mmHg 66%
    13:00 +26°C° 0,2 mm 4 m/S 747 mmHg 64%
    14:00 +26°C° 0,2 mm 4 m/S 747 mmHg 62%
    15:00 +26°C° 0,2 mm 4 m/S 747 mmHg 65%
    16:00 +26°C° 0,2 mm 4 m/S 747 mmHg 67%
    17:00 +25°C° 0,2 mm 3 m/S 747 mmHg 69%
    18:00 +22°C° 0 mm 3 m/S 748 mmHg 74%
    19:00 +21°C° 0 mm 3 m/S 748 mmHg 78%
    20:00 +19°C° 0 mm 3 m/S 748 mmHg 83%
    21:00 +18°C° 0 mm 3 m/S 748 mmHg 87%
    22:00 +17°C° 0 mm 3 m/S 748 mmHg 90%
    23:00 +16°C° 0 mm 2 m/S 748 mmHg 94%

    Morgen, 24 Juli, Dienstag

    Zeit Temperatur Niederschläge Wind Luftdruck Luftfeuchtigkeit
    00:00 +15°C° 0 mm 2 m/S 748 mmHg 94%
    01:00 +15°C° 0 mm 2 m/S 748 mmHg 95%
    02:00 +15°C° 0 mm 2 m/S 748 mmHg 95%
    03:00 +15°C° 0 mm 2 m/S 748 mmHg 94%
    04:00 +16°C° 0 mm 3 m/S 748 mmHg 93%
    05:00 +16°C° 0 mm 3 m/S 748 mmHg 92%
    06:00 +16°C° 0 mm 3 m/S 748 mmHg 91%
    07:00 +17°C° 0 mm 3 m/S 749 mmHg 90%
    08:00 +17°C° 0 mm 3 m/S 749 mmHg 89%
    09:00 +18°C° 0,1 mm 3 m/S 749 mmHg 89%
    10:00 +18°C° 0,1 mm 3 m/S 749 mmHg 89%
    11:00 +18°C° 0,1 mm 3 m/S 749 mmHg 89%
    12:00 +19°C° 0 mm 3 m/S 749 mmHg 86%
    13:00 +20°C° 0 mm 3 m/S 749 mmHg 84%
    14:00 +21°C° 0 mm 3 m/S 749 mmHg 81%
    15:00 +21°C° 0 mm 3 m/S 749 mmHg 82%
    16:00 +21°C° 0 mm 3 m/S 749 mmHg 83%
    17:00 +21°C° 0 mm 2 m/S 749 mmHg 84%
    18:00 +20°C° 0 mm 2 m/S 749 mmHg 87%
    19:00 +20°C° 0 mm 2 m/S 749 mmHg 90%
    20:00 +19°C° 0 mm 2 m/S 749 mmHg 94%
    21:00 +19°C° 0 mm 2 m/S 749 mmHg 94%
    22:00 +19°C° 0 mm 2 m/S 749 mmHg 95%
    23:00 +19°C° 0 mm 2 m/S 749 mmHg 96%

    übermorgen, 25 Juli, Mittwoch

    Zeit Temperatur Niederschläge Wind Luftdruck Luftfeuchtigkeit
    00:00 +18°C° 0 mm 2 m/S 749 mmHg 96%
    01:00 +18°C° 0 mm 2 m/S 750 mmHg 97%
    02:00 +18°C° 0 mm 2 m/S 750 mmHg 97%
    03:00 +18°C° 0 mm 2 m/S 750 mmHg 96%
    04:00 +18°C° 0 mm 3 m/S 750 mmHg 95%
    05:00 +18°C° 0 mm 3 m/S 750 mmHg 94%
    06:00 +19°C° 0 mm 3 m/S 750 mmHg 91%
    07:00 +20°C° 0 mm 3 m/S 751 mmHg 88%
    08:00 +21°C° 0 mm 3 m/S 751 mmHg 86%
    09:00 +22°C° 0 mm 3 m/S 751 mmHg 79%
    10:00 +23°C° 0 mm 4 m/S 751 mmHg 72%
    11:00 +26°C° 0 mm 4 m/S 751 mmHg 65%
    12:00 +26°C° 0,1 mm 4 m/S 751 mmHg 60%
    13:00 +27°C° 0,1 mm 4 m/S 751 mmHg 54%
    14:00 +28°C° 0,1 mm 4 m/S 751 mmHg 49%
    15:00 +27°C° 0 mm 4 m/S 751 mmHg 51%
    16:00 +26°C° 0 mm 4 m/S 751 mmHg 54%
    17:00 +26°C° 0 mm 4 m/S 751 mmHg 57%
    18:00 +23°C° 0 mm 4 m/S 752 mmHg 62%
    19:00 +21°C° 0 mm 3 m/S 752 mmHg 68%
    20:00 +19°C° 0 mm 3 m/S 752 mmHg 73%
    21:00 +18°C° 0 mm 3 m/S 752 mmHg 77%
    22:00 +18°C° 0 mm 3 m/S 752 mmHg 80%
    23:00 +17°C° 0 mm 2 m/S 752 mmHg 83%

    26 Juli, Donnerstag

    Zeit Temperatur Niederschläge Wind Luftdruck Luftfeuchtigkeit
    00:00 +17°C° 0,1 mm 2 m/S 752 mmHg 85%
    01:00 +17°C° 0,1 mm 2 m/S 752 mmHg 87%
    02:00 +17°C° 0,1 mm 2 m/S 752 mmHg 88%
    03:00 +17°C° 0,2 mm 2 m/S 752 mmHg 91%
    04:00 +18°C° 0,2 mm 2 m/S 752 mmHg 93%
    05:00 +18°C° 0,2 mm 2 m/S 752 mmHg 95%
    06:00 +18°C° 0,2 mm 3 m/S 752 mmHg 93%
    07:00 +19°C° 0,2 mm 3 m/S 752 mmHg 91%
    08:00 +20°C° 0,2 mm 3 m/S 752 mmHg 89%
    09:00 +21°C° 0 mm 3 m/S 752 mmHg 84%
    10:00 +24°C° 0 mm 3 m/S 752 mmHg 79%
    11:00 +25°C° 0 mm 3 m/S 752 mmHg 74%
    12:00 +26°C° 0 mm 3 m/S 752 mmHg 72%
    13:00 +26°C° 0 mm 3 m/S 752 mmHg 69%
    14:00 +27°C° 0 mm 3 m/S 752 mmHg 67%
    15:00 +27°C° 0,1 mm 3 m/S 752 mmHg 67%
    16:00 +28°C° 0,1 mm 2 m/S 752 mmHg 67%
    17:00 +28°C° 0,1 mm 2 m/S 752 mmHg 67%
    18:00 +26°C° 0,1 mm 2 m/S 752 mmHg 70%
    19:00 +25°C° 0,1 mm 2 m/S 752 mmHg 73%
    20:00 +23°C° 0,1 mm 2 m/S 752 mmHg 76%
    21:00 +21°C° 0,1 mm 2 m/S 752 mmHg 77%
    22:00 +21°C° 0,1 mm 2 m/S 752 mmHg 79%
    23:00 +21°C° 0,1 mm 1 m/S 752 mmHg 80%

    27 Juli, Freitag

    Zeit Temperatur Niederschläge Wind Luftdruck Luftfeuchtigkeit
    00:00 +20°C° 0,3 mm 1 m/S 752 mmHg 84%
    01:00 +19°C° 0,3 mm 2 m/S 752 mmHg 88%
    02:00 +18°C° 0,3 mm 2 m/S 752 mmHg 92%
    03:00 +19°C° 0,1 mm 2 m/S 752 mmHg 93%
    04:00 +19°C° 0,1 mm 2 m/S 752 mmHg 94%
    05:00 +19°C° 0,1 mm 2 m/S 752 mmHg 94%
    06:00 +20°C° 0 mm 2 m/S 752 mmHg 92%
    07:00 +23°C° 0 mm 2 m/S 752 mmHg 89%
    08:00 +24°C° 0 mm 1 m/S 752 mmHg 86%
    09:00 +25°C° 0,4 mm 2 m/S 752 mmHg 82%
    10:00 +26°C° 0,4 mm 2 m/S 752 mmHg 78%
    11:00 +27°C° 0,4 mm 2 m/S 752 mmHg 75%
    12:00 +28°C° 0,3 mm 2 m/S 752 mmHg 69%
    13:00 +29°C° 0,3 mm 1 m/S 752 mmHg 63%
    14:00 +30°C° 0,3 mm 1 m/S 751 mmHg 57%
    15:00 +30°C° 0,4 mm 1 m/S 751 mmHg 60%
    16:00 +30°C° 0,4 mm 1 m/S 751 mmHg 64%
    17:00 +29°C° 0,4 mm 1 m/S 751 mmHg 67%
    18:00 +27°C° 1 mm 1 m/S 751 mmHg 74%
    19:00 +26°C° 1 mm 1 m/S 751 mmHg 80%
    20:00 +24°C° 1 mm 1 m/S 751 mmHg 87%
    21:00 +21°C° 0,5 mm 0 m/S 751 mmHg 89%
    22:00 +20°C° 0,5 mm 0 m/S 751 mmHg 90%
    23:00 +20°C° 0,5 mm 0 m/S 751 mmHg 91%

    28 Juli, Samstag

    Zeit Temperatur Niederschläge Wind Luftdruck Luftfeuchtigkeit
    00:00 +20°C° 0,6 mm 0 m/S 751 mmHg 92%
    01:00 +20°C° 0,6 mm 0 m/S 751 mmHg 92%
    02:00 +21°C° 0,6 mm 1 m/S 751 mmHg 93%
    03:00 +22°C° 0,3 mm 1 m/S 751 mmHg 93%
    04:00 +22°C° 0,3 mm 1 m/S 751 mmHg 93%
    05:00 +22°C° 0,3 mm 1 m/S 751 mmHg 94%
    06:00 +22°C° 0,2 mm 1 m/S 751 mmHg 92%
    07:00 +23°C° 0,2 mm 1 m/S 751 mmHg 91%
    08:00 +24°C° 0,2 mm 1 m/S 751 mmHg 90%
    09:00 +25°C° 0,9 mm 1 m/S 751 mmHg 87%
    10:00 +26°C° 0,9 mm 2 m/S 751 mmHg 83%
    11:00 +27°C° 0,9 mm 3 m/S 751 mmHg 80%
    12:00 +26°C° 1,6 mm 3 m/S 751 mmHg 82%
    13:00 +26°C° 1,6 mm 3 m/S 751 mmHg 83%
    14:00 +26°C° 1,6 mm 2 m/S 751 mmHg 84%
    15:00 +25°C° 0,4 mm 3 m/S 751 mmHg 85%
    16:00 +25°C° 0,4 mm 3 m/S 752 mmHg 86%
    17:00 +25°C° 0,4 mm 3 m/S 752 mmHg 86%
    18:00 +24°C° 0,5 mm 3 m/S 752 mmHg 89%
    19:00 +22°C° 0,5 mm 3 m/S 752 mmHg 92%
    20:00 +21°C° 0,5 mm 4 m/S 752 mmHg 95%
    21:00 +20°C° 0,1 mm 4 m/S 752 mmHg 95%
    22:00 +20°C° 0,1 mm 4 m/S 753 mmHg 95%
    23:00 +19°C° 0,1 mm 4 m/S 753 mmHg 95%
    Mehr zeigen